Location: St. Louis
(38.6270°N, 90.1994°W)
Time: 11:26:50
(UTC-06:00)

Vanguard 1 Rocket - All Passes

Search period start: 06 December 2021 00:00
Search period end: 16 December 2021 00:00
Orbit: 650 x 4226 km, 34.3° (Epoch: 04 December)

Date Brightness Start Highest point End Pass type
(mag) Time Alt. Az. Time Alt. Az. Time Alt. Az.
06 Dec - 02:15:19 10° WSW 02:24:20 66° SSE 02:42:25 10° E visible
06 Dec - 04:39:51 10° W 04:53:00 75° S 05:17:07 10° ESE visible
06 Dec - 07:06:16 10° W 07:23:51 54° SSW 07:48:43 10° SE daylight
06 Dec - 09:37:17 10° W 09:54:11 26° SW 10:12:36 10° S daylight
06 Dec - 22:47:34 10° SE 22:49:05 11° SE 22:50:46 10° ESE night (unlit)
07 Dec - 01:05:12 10° SW 01:12:32 50° SSE 01:26:36 10° E visible
07 Dec - 03:28:46 10° W 03:39:33 75° S 04:00:53 10° E visible
07 Dec - 05:54:10 10° W 06:09:27 64° SSW 06:34:28 10° SE visible
07 Dec - 08:22:21 10° W 08:40:11 37° SW 09:02:11 10° SSE daylight
07 Dec - 23:55:45 10° SSW 00:01:32 31° SE 00:11:15 10° E visible
08 Dec - 02:18:06 10° WSW 02:26:52 70° SSE 02:44:41 10° E visible
08 Dec - 04:42:41 10° W 04:55:29 71° S 05:19:05 10° ESE visible
08 Dec - 07:09:12 10° W 07:25:56 47° SSW 07:49:49 10° SE daylight
08 Dec - 09:41:50 10° W 09:55:59 20° SW 10:11:29 10° S daylight
08 Dec - 22:47:40 10° SSE 22:51:08 15° SE 22:55:38 10° E night (unlit)
09 Dec - 01:07:50 10° SW 01:14:59 56° SSE 01:28:59 10° E visible
09 Dec - 03:31:37 10° W 03:42:08 74° S 04:03:02 10° ESE visible
09 Dec - 05:57:03 10° W 06:11:45 57° SSW 06:35:57 10° SE visible
09 Dec - 08:25:51 10° W 08:42:07 30° SW 09:02:17 10° S daylight
09 Dec - 23:58:05 10° SW 00:03:51 38° SSE 00:13:55 10° E visible
10 Dec - 02:20:57 10° WSW 02:29:29 72° S 02:46:57 10° E visible
10 Dec - 04:45:33 10° W 04:57:58 66° SSW 05:20:53 10° ESE visible
10 Dec - 07:12:17 10° W 07:28:04 40° SSW 07:50:34 10° SSE daylight
10 Dec - 09:48:10 10° WSW 09:57:54 14° SW 10:08:25 10° SSW daylight
10 Dec - 22:49:11 10° S 22:53:20 20° SE 22:59:09 10° E night (unlit)
11 Dec - 01:10:35 10° WSW 01:17:34 62° SSE 01:31:21 10° E visible
11 Dec - 03:34:31 10° W 03:44:45 71° S 04:05:06 10° ESE visible
11 Dec - 05:59:58 10° W 06:14:04 50° SSW 06:37:09 10° SE visible
11 Dec - 08:29:53 10° W 08:44:08 23° SW 09:01:38 10° S daylight
12 Dec - 00:00:36 10° SW 00:06:18 45° SSE 00:16:30 10° E visible
12 Dec - 02:23:50 10° W 02:32:10 72° S 02:49:11 10° E visible
12 Dec - 04:48:27 10° W 05:00:27 59° SSW 05:22:30 10° SE visible
12 Dec - 07:15:37 10° W 07:30:14 33° SW 07:50:49 10° SSE daylight
12 Dec - 22:51:12 10° SSW 22:55:38 26° SE 23:02:13 10° E night (unlit)
13 Dec - 01:13:24 10° WSW 01:20:14 66° S 01:33:43 10° E visible
13 Dec - 03:37:25 10° W 03:47:21 66° S 04:07:03 10° ESE visible
13 Dec - 06:03:03 10° W 06:16:25 43° SSW 06:38:01 10° SSE visible
13 Dec - 08:34:56 10° WSW 08:46:17 17° SW 08:59:44 10° S daylight
13 Dec - 21:43:37 10° SSE 21:45:17 11° SE 21:47:08 10° ESE night (unlit)
14 Dec - 00:03:16 10° SW 00:08:53 52° SSE 00:19:02 10° E visible
14 Dec - 02:26:43 10° W 02:34:52 70° S 02:51:23 10° ESE visible
14 Dec - 04:51:25 10° W 05:02:57 52° SSW 05:23:51 10° SE visible
14 Dec - 07:19:23 10° W 07:32:30 26° SW 07:50:28 10° S daylight
14 Dec - 22:53:31 10° SSW 22:58:05 32° SSE 23:05:05 10° E night (unlit)
15 Dec - 01:16:16 10° WSW 01:22:57 68° S 01:36:06 10° E visible
15 Dec - 03:40:21 10° W 03:49:58 60° SSW 04:08:50 10° ESE visible
15 Dec - 06:06:19 10° W 06:18:49 35° SSW 06:38:29 10° SSE visible
15 Dec - 08:43:06 10° WSW 08:48:36 11° SW 08:54:33 10° SSW daylight
15 Dec - 21:44:39 10° S 21:47:37 16° SE 21:51:16 10° ESE night (unlit)
